DW5868 Weather Reports


time (UTC)temp
F
wind
direction
speed
knots
gust
knots
rain 1hr
in
rain 24hr
in
rain mn
in
humidity
%
barometer
mb
20260905193021 63 240 6.1 19.1 0.00 0.00 0.00 36 1009.2
20260905191523 63 257 2.6 11.3 0.00 0.00 0.00 33 1009.1
20260905190012 63 165 1.7 7.8 0.00 0.00 0.00 34 1009.4
20260905184512 63 278 0.9 13.9 0.00 0.00 0.00 34 1009.6
20260905183011 62 253 6.1 12.2 0.00 0.00 0.00 32 1009.6
20260905181511 63 328 5.2 10.4 0.00 0.00 0.00 29 1009.6
20260905180008 62 277 2.6 10.4 0.00 0.00 0.00 30 1009.5
20260905174506 61 58 2.6 7.0 0.00 0.00 0.00 33 1009.5
20260905173005 61 228 2.6 7.8 0.00 0.00 0.00 33 1009.6
20260905171504 59 65 0.9 6.1 0.00 0.00 0.00 35 1009.6
20260905170002 58 135 1.7 4.3 0.00 0.00 0.00 38 1009.7
20260905164501 57 275 0.9 5.2 0.00 0.00 0.00 34 1009.5
20260905163059 57 280 1.7 7.8 0.00 0.00 0.00 34 1009.4
20260905161558 56 74 4.3 7.8 0.00 0.00 0.00 42 1009.4
20260905160057 54 130 2.6 7.8 0.00 0.00 0.00 43 1009.5
20260905154556 54 58 0.9 4.3 0.00 0.00 0.00 45 1009.6
20260905153053 53 229 0.0 3.5 0.00 0.00 0.00 47 1009.4
20260905151551 52 115 0.9 4.3 0.00 0.00 0.00 47 1009.4
20260905150052 51 68 1.7 13.0 0.00 0.00 0.00 47 1009.1
20260905144546 49 247 4.3 13.0 0.00 0.00 0.00 43 1009.0
20260905143041 49 284 5.2 16.5 0.00 0.00 0.00 45 1009.0
20260905141540 48 273 6.1 20.0 0.00 0.00 0.00 48 1008.7
20260905140045 47 241 6.1 20.0 0.00 0.00 0.00 48 1008.3
20260905134541 0 0.0 0.0 0.00 0.00 0.00 1008.2
20260905133029 0 0.0 0.0 0.00 0.00 0.00 1008.0
20260905131530 0 0.0 0.0 0.00 0.00 0.00 1007.9
20260905130035 0 0.0 0.0 0.00 0.00 0.00 1008.1
20260905124523 0 0.0 0.0 0.00 0.00 0.00 1008.1
20260905123016 0 0.0 0.0 0.00 0.00 0.00 1008.1
20260905121510 0 0.0 0.0 0.00 0.00 0.00 1008.2
20260905120006 0 0.0 0.0 0.00 0.00 0.00 1008.5
20260905114504 45 277 4.3 13.9 0.00 0.00 0.00 58 1008.7
20260905113003 46 263 6.1 22.6 0.00 0.00 0.00 58 1008.7
20260905111503 46 227 6.1 15.6 0.00 0.00 0.00 61 1008.6
20260905110003 46 256 4.3 20.9 0.00 0.00 0.00 61 1008.7
20260905104613 46 275 5.2 13.9 0.00 0.00 0.00 61 1008.5
20260905103100 46 214 5.2 13.0 0.00 0.00 0.00 59 1008.6
20260905101604 47 269 5.2 23.5 0.00 0.00 0.00 55 1008.7
20260905100105 47 317 4.3 13.0 0.00 0.00 0.00 57 1008.7
20260905094555 46 267 2.6 13.0 0.00 0.00 0.00 61 1008.7
20260905093054 46 271 5.2 12.2 0.00 0.00 0.00 63 1008.7
20260905091553 46 256 6.1 14.8 0.00 0.00 0.00 63 1008.8
20260905090114 46 273 5.2 19.1 0.00 0.00 0.00 62 1009.0
20260905084550 46 265 4.3 14.8 0.00 0.00 0.00 66 1009.0
20260905083047 46 282 5.2 16.5 0.00 0.00 0.00 67 1008.8
20260905081546 46 168 5.2 17.4 0.00 0.00 0.00 70 1009.0
20260905080044 45 275 7.0 20.0 0.00 0.00 0.00 73 1009.0
20260905074545 46 215 5.2 13.9 0.00 0.00 0.00 73 1009.1
20260905073045 46 267 5.2 16.5 0.00 0.00 0.00 72 1009.1
20260905071539 46 242 4.3 14.8 0.00 0.00 0.00 73 1009.1
20260905070046 46 252 4.3 20.0 0.00 0.00 0.00 72 1009.0
20260905064539 46 249 5.2 16.5 0.00 0.00 0.00 71 1008.7
20260905063037 46 292 5.2 16.5 0.00 0.00 0.00 72 1008.6
20260905061541 46 305 5.2 14.8 0.00 0.00 0.00 73 1008.6
20260905060037 46 288 7.0 19.1 0.00 0.00 0.00 71 1008.6
20260905054538 46 284 7.8 21.7 0.00 0.00 0.00 71 1008.7
20260905053035 46 15 3.5 16.5 0.00 0.00 0.00 74 1008.7
20260905051534 46 286 5.2 18.2 0.00 0.00 0.00 73 1008.5
20260905050033 47 272 7.8 15.6 0.00 0.00 0.00 73 1008.5
20260905044533 47 280 4.3 17.4 0.00 0.00 0.00 74 1008.4
20260905043031 47 198 5.2 17.4 0.00 0.00 0.00 74 1008.3
20260905041546 47 309 8.7 16.5 0.00 0.00 0.00 74 1008.1
20260905040031 48 267 4.3 17.4 0.00 0.00 0.00 72 1007.8
20260905034529 48 242 7.0 20.0 0.00 0.00 0.00 72 1007.6
20260905033028 48 303 5.2 15.6 0.00 0.00 0.00 72 1007.6
20260905031527 48 260 3.5 12.2 0.00 0.00 0.00 75 1007.5
20260905030026 48 275 4.3 17.4 0.00 0.00 0.00 75 1007.3
20260905024530 48 277 3.5 12.2 0.00 0.00 0.00 76 1007.2
20260905023024 49 277 2.6 17.4 0.00 0.00 0.00 73 1006.9
20260905021531 49 248 6.1 12.2 0.00 0.00 0.00 74 1007.2
20260905020025 49 304 4.3 13.9 0.00 0.00 0.00 74 1007.1
20260905014524 50 229 6.1 16.5 0.00 0.00 0.00 72 1007.2
20260905013024 51 199 4.3 13.0 0.00 0.00 0.00 70 1007.2
20260905011523 51 202 7.0 14.8 0.00 0.00 0.00 68 1007.2
20260905010021 53 289 4.3 10.4 0.00 0.00 0.00 65 1007.2
20260905004521 53 277 3.5 13.0 0.00 0.00 0.00 65 1007.0
20260905003021 55 234 4.3 20.0 0.00 0.00 0.00 62 1006.9
20260905001519 55 277 4.3 16.5 0.00 0.00 0.00 61 1006.9
20260905000019 56 278 4.3 14.8 0.00 0.00 0.00 60 1006.8
20260904234520 56 283 4.3 17.4 0.00 0.00 0.00 59 1007.0
20260904233018 56 202 7.0 17.4 0.00 0.00 0.00 57 1006.8
20260904231518 57 229 5.2 15.6 0.00 0.00 0.00 56 1006.7
20260904230019 58 232 3.5 19.1 0.00 0.00 0.00 55 1006.8
20260904224517 58 271 4.3 16.5 0.00 0.00 0.00 54 1006.8
20260904223017 58 250 4.3 12.2 0.00 0.00 0.00 54 1006.8
20260904221519 57 232 8.7 20.0 0.00 0.00 0.00 54 1007.0
20260904220018 58 258 8.7 20.0 0.00 0.00 0.00 52 1006.9
20260904214518 58 214 3.5 10.4 0.00 0.00 0.00 53 1006.8
20260904213017 57 260 8.7 26.1 0.00 0.00 0.00 51 1006.9
20260904211514 58 237 6.1 23.5 0.00 0.00 0.00 51 1006.7
20260904210016 58 157 3.5 13.9 0.00 0.00 0.00 49 1006.4
20260904204517 58 166 5.2 12.2 0.00 0.00 0.00 48 1006.1
20260904203018 58 214 5.2 17.4 0.00 0.00 0.00 49 1006.3
20260904201512 58 259 6.1 20.9 0.00 0.00 0.00 48 1006.2
20260904200012 58 302 2.6 15.6 0.00 0.00 0.00 50 1006.2
20260904194511 58 269 7.0 15.6 0.00 0.00 0.00 47 1006.1